Juneau, WI

8:41 AM CDT on July 22, 2017 (GMT -0500)
Dodge County

Weather History for KUNU - August, 2014

Change the Weather History Date:

Thursday, August 14, 2014

  Actual Average Record
Temperature  
Mean Temperature 60 °F -  
Max Temperature 70 °F 75 °F 93 °F (1972)
Min Temperature 50 °F 57 °F 45 °F (1979)
Degree Days  
Heating Degree Days 6    
Growing Degree Days 10 (Base 50)    
Moisture  
Dew Point 27 °F    
Average Humidity 29    
Maximum Humidity 41    
Minimum Humidity 19    
Precipitation  
Precipitation 0.00 in - - ()
Sea Level Pressure  
Sea Level Pressure 30.11 in    
Wind  
Wind Speed 5 mph (NE)    
Max Wind Speed 9 mph    
Max Gust Speed -    
Visibility 10 miles    
Events      
Averages and records for this station are not official NWS values.
T = Trace of Precipitation, MM = Missing Value Source: NWS Daily Summary

Daily Weather History Graph

Daily Weather History Graph

Search for Another Location

Airport or City:

Trip Planner

Search our weather history database for the weather conditions in past years. The results will help you decide how hot, cold, wet, or windy it might be!

Date:

Astronomy

Aug. 14, 2014 Rise Set
Actual Time 5:58 AM CDT 7:59 PM CDT
Civil Twilight 5:27 AM CDT 8:30 PM CDT
Nautical Twilight 4:49 AM CDT 9:08 PM CDT
Astronomical Twilight 4:07 AM CDT 9:49 PM CDT
Moon 10:12 PM CDT (8/14) 10:44 AM CDT (8/14)
Length of Visible Light 15h 02m
Length of Day
14h 00m
Waning Gibbous, 79% of the Moon is Illuminated
Aug 14
Waning Gibbous
Aug 17
Last Quarter
Aug 25
New
Sep 2
First Quarter
Sep 8
Full

Hourly Weather History & Observations

Time (CDT) Temp. Dew Point Humidity Pressure Visibility Wind Dir Wind Speed Gust Speed Precip Events Conditions
12:15 AM 59.2 °F 29.3 °F 32% 30.09 in 10.0 mi ENE 9.2 mph - N/A   Clear
12:35 AM 58.5 °F 28.6 °F 32% 30.10 in 10.0 mi ENE 9.2 mph - N/A   Clear
12:55 AM 58.1 °F 30.2 °F 35% 30.10 in 10.0 mi ENE 8.1 mph - N/A   Clear
1:15 AM 57.6 °F 30.4 °F 36% 30.10 in 10.0 mi ENE 8.1 mph - N/A   Clear
1:35 AM 56.8 °F 30.4 °F 37% 30.11 in 10.0 mi NE 6.9 mph - N/A   Clear
1:55 AM 56.5 °F 30.0 °F 36% 30.11 in 10.0 mi NE 9.2 mph - N/A   Clear
2:15 AM 56.3 °F 30.6 °F 38% 30.11 in 10.0 mi NE 5.8 mph - N/A   Clear
2:35 AM 55.6 °F 29.8 °F 37% 30.12 in 10.0 mi NE 6.9 mph - N/A   Clear
2:55 AM 55.4 °F 29.7 °F 37% 30.12 in 10.0 mi NE 5.8 mph - N/A   Clear
3:15 AM 54.7 °F 29.1 °F 38% 30.12 in 10.0 mi NE 4.6 mph - N/A   Clear
3:35 AM 54.1 °F 29.1 °F 38% 30.12 in 10.0 mi NE 4.6 mph - N/A   Clear
3:55 AM 53.6 °F 29.3 °F 39% 30.12 in 10.0 mi Calm Calm - N/A   Clear
4:15 AM 53.2 °F 28.6 °F 39% 30.12 in 10.0 mi Calm Calm - N/A   Clear
4:35 AM 52.7 °F 28.4 °F 39% 30.12 in 10.0 mi Calm Calm - N/A   Clear
5:15 AM 52.2 °F 29.1 °F 41% 30.13 in 10.0 mi Calm Calm - N/A   Clear
5:35 AM 50.9 °F 27.5 °F 40% 30.13 in 10.0 mi North 3.5 mph - N/A   Clear
5:55 AM 51.1 °F 27.7 °F 40% 30.14 in 10.0 mi North 4.6 mph - N/A   Clear
6:15 AM 51.3 °F 28.0 °F 41% 30.14 in 10.0 mi North 3.5 mph - N/A   Clear
6:35 AM 51.8 °F 27.7 °F 39% 30.15 in 10.0 mi North 4.6 mph - N/A   Clear
6:55 AM 52.0 °F 28.2 °F 40% 30.15 in 10.0 mi Calm Calm - N/A   Clear
7:15 AM 52.9 °F 28.4 °F 39% 30.16 in 10.0 mi Calm Calm - N/A   Clear
7:35 AM 54.5 °F 29.7 °F 39% 30.16 in 10.0 mi NNE 3.5 mph - N/A   Clear
7:55 AM 55.9 °F 29.5 °F 36% 30.16 in 10.0 mi NE 4.6 mph - N/A   Clear
8:15 AM 56.7 °F 27.9 °F 33% 30.16 in 10.0 mi NNE 4.6 mph - N/A   Clear
8:35 AM 58.6 °F 25.9 °F 29% 30.16 in 10.0 mi NE 8.1 mph - N/A   Clear
8:55 AM 59.9 °F 24.8 °F 26% 30.16 in 10.0 mi NE 6.9 mph - N/A   Clear
9:15 AM 60.3 °F 24.4 °F 25% 30.16 in 10.0 mi North 6.9 mph - N/A   Clear
9:35 AM 61.2 °F 25.7 °F 26% 30.16 in 10.0 mi NNE 5.8 mph - N/A   Clear
9:55 AM 62.1 °F 25.3 °F 25% 30.16 in 10.0 mi North 8.1 mph - N/A   Clear
10:15 AM 63.0 °F 24.3 °F 23% 30.16 in 10.0 mi NNE 8.1 mph - N/A   Clear
10:35 AM 63.5 °F 24.1 °F 22% 30.16 in 10.0 mi NE 8.1 mph - N/A   Clear
10:55 AM 64.4 °F 22.6 °F 20% 30.16 in 10.0 mi North 4.6 mph - N/A   Clear
11:15 AM 64.8 °F 23.0 °F 20% 30.16 in 10.0 mi NNE 9.2 mph - N/A   Clear
11:35 AM 65.1 °F 22.1 °F 19% 30.15 in 10.0 mi NNE 4.6 mph - N/A   Clear
11:55 AM 65.3 °F 23.2 °F 20% 30.15 in 10.0 mi NW 4.6 mph - N/A   Clear
12:15 PM 66.2 °F 23.5 °F 20% 30.15 in 10.0 mi NNW 6.9 mph - N/A   Clear
12:35 PM 65.8 °F 24.3 °F 21% 30.15 in 10.0 mi Calm Calm - N/A   Clear
12:55 PM 66.7 °F 24.3 °F 20% 30.14 in 10.0 mi ENE 5.8 mph - N/A   Clear
1:15 PM 67.8 °F 27.1 °F 22% 30.13 in 10.0 mi North 5.8 mph - N/A   Clear
1:35 PM 67.6 °F 25.3 °F 20% 30.13 in 10.0 mi NNW 6.9 mph - N/A   Clear
1:55 PM 68.4 °F 25.0 °F 20% 30.12 in 10.0 mi ENE 3.5 mph - N/A   Clear
2:15 PM 68.9 °F 26.6 °F 20% 30.12 in 10.0 mi Calm Calm - N/A   Clear
2:35 PM 68.0 °F 25.9 °F 21% 30.11 in 10.0 mi Calm Calm - N/A   Clear
2:55 PM 69.1 °F 27.1 °F 21% 30.10 in 10.0 mi NNW 8.1 mph - N/A   Clear
3:15 PM 68.4 °F 26.2 °F 21% 30.10 in 10.0 mi Calm Calm - N/A   Clear
3:35 PM 69.8 °F 27.9 °F 21% 30.10 in 10.0 mi Calm Calm - N/A   Clear
3:55 PM 69.6 °F 28.6 °F 22% 30.10 in 10.0 mi NE 5.8 mph - N/A   Clear
4:15 PM 68.9 °F 26.6 °F 20% 30.10 in 10.0 mi NNE 4.6 mph - N/A   Clear
4:35 PM 69.6 °F 28.0 °F 21% 30.09 in 10.0 mi NE 4.6 mph - N/A   Clear
4:55 PM 68.9 °F 27.3 °F 21% 30.09 in 10.0 mi North 5.8 mph - N/A   Clear
5:15 PM 68.9 °F 27.5 °F 21% 30.09 in 10.0 mi Calm Calm - N/A   Clear
5:35 PM 68.0 °F 26.1 °F 21% 30.08 in 10.0 mi Calm Calm - N/A   Clear
5:55 PM 68.2 °F 25.9 °F 20% 30.09 in 10.0 mi NE 3.5 mph - N/A   Clear
6:15 PM 69.3 °F 26.6 °F 20% 30.08 in 10.0 mi Calm Calm - N/A   Clear
6:35 PM 68.5 °F 25.7 °F 20% 30.08 in 10.0 mi Calm Calm - N/A   Clear
6:55 PM 67.5 °F 26.2 °F 21% 30.07 in 10.0 mi East 3.5 mph - N/A   Clear
7:15 PM 66.7 °F 25.9 °F 21% 30.07 in 10.0 mi Calm Calm - N/A   Clear
7:35 PM 66.2 °F 26.8 °F 23% 30.07 in 10.0 mi Calm Calm - N/A   Clear
7:55 PM 64.4 °F 26.6 °F 24% 30.07 in 10.0 mi Calm Calm - N/A   Clear
8:15 PM 62.1 °F 25.7 °F 25% 30.07 in 10.0 mi Calm Calm - N/A   Clear
8:35 PM 61.0 °F 27.9 °F 28% 30.07 in 10.0 mi Calm Calm - N/A   Clear
8:55 PM 60.6 °F 28.8 °F 30% 30.07 in 10.0 mi Calm Calm - N/A   Clear
9:15 PM 59.7 °F 28.0 °F 30% 30.07 in 10.0 mi Calm Calm - N/A   Clear
9:35 PM 56.8 °F 27.1 °F 32% 30.07 in 10.0 mi Calm Calm - N/A   Clear
9:55 PM 57.2 °F 27.7 °F 32% 30.07 in 10.0 mi ESE 3.5 mph - N/A   Clear
10:15 PM 57.2 °F 27.9 °F 33% 30.07 in 10.0 mi ESE 5.8 mph - N/A   Clear
10:35 PM 55.8 °F 27.7 °F 34% 30.07 in 10.0 mi SE 4.6 mph - N/A   Clear
10:55 PM 55.4 °F 26.2 °F 33% 30.07 in 10.0 mi SSE 3.5 mph - N/A   Clear
11:15 PM 56.5 °F 26.2 °F 31% 30.07 in 10.0 mi SE 4.6 mph - N/A   Clear
11:35 PM 55.4 °F 27.0 °F 34% 30.08 in 10.0 mi SSE 3.5 mph - N/A   Clear
11:55 PM 54.7 °F 25.5 °F 32% 30.07 in 10.0 mi SE 4.6 mph - N/A   Clear